Tracking 31027 objects as of 19-Jul-2025
HD Live streaming from Space Station
objects crossing your sky now

SL-12 R/B(2)

Track SL-12 R/B(2) now!


NORAD ID: 22883
Int'l Code: 1993-069D
Perigee: 35,723.7 km
Apogee: 35,751.3 km
Inclination: 14.0 °
Period: 1,433.2 minutes
Semi major axis: 42108 km
RCS: 3.8288 m2 (large)
Launch date: October 28, 1993
Source: Commonwealth of Independent States (former USSR) (CIS)
Launch site: TYURATAM MISSILE AND SPACE COMPLEX (TTMTR)

Note: This is a ROCKET BODY
Your satellite tracking list
FENGYUN 1C DEB
Track 1 satellite(s)




NASA's NSSDC Master Catalog

Two Line Element Set (TLE):
1 22883U 93069D   25199.12945358  .00000037  00000-0  00000-0 0  9993
2 22883  14.0196 349.1762 0003288  72.0947 286.2999  1.00472748115700
Source of the keplerian elements: AFSPC